KC5TIL-3 Weather Reports


Display with metric or nautical units.
time (UTC)temp
F
wind
direction
speed
MPH
gust
MPH
rain 1hr
in
rain 24hr
in
rain mn
in
humidity
%
barometer
mb
20260831200415 99 210 7.0 14.0 0.00 0.00 0.00 10 1012.8
20260831195917 98 134 8.0 15.0 0.00 0.00 0.00 10 1012.8
20260831195415 97 144 3.0 13.0 0.00 0.00 0.00 11 1012.8
20260831194917 97 142 9.0 15.0 0.00 0.00 0.00 13 1012.8
20260831194419 97 228 7.0 12.0 0.00 0.00 0.00 13 1012.8
20260831193918 98 141 8.0 14.0 0.00 0.00 0.00 13 1012.8
20260831193419 97 126 5.0 13.0 0.00 0.00 0.00 13 1012.8
20260831192921 97 129 11.0 15.0 0.00 0.00 0.00 13 1012.8
20260831192420 96 128 8.0 14.0 0.00 0.00 0.00 13 1012.8
20260831191922 96 111 10.0 13.0 0.00 0.00 0.00 13 1012.8
20260831191424 96 107 11.0 13.0 0.00 0.00 0.00 13 1012.8
20260831190922 96 129 9.0 13.0 0.00 0.00 0.00 13 1012.8
20260831190424 96 118 8.0 17.0 0.00 0.00 0.00 13 1012.8
20260831185926 96 144 9.0 13.0 0.00 0.00 0.00 14 1012.8
20260831185424 96 160 8.0 13.0 0.00 0.00 0.00 13 1012.8
20260831184926 95 176 7.0 13.0 0.00 0.00 0.00 14 1012.8
20260831184428 95 180 7.0 15.0 0.00 0.00 0.00 14 1013.8
20260831183927 95 103 12.0 15.0 0.00 0.00 0.00 14 1013.8
20260831183429 96 126 8.0 14.0 0.00 0.00 0.00 13 1013.8
20260831182930 96 149 7.0 11.0 0.00 0.00 0.00 13 1013.8
20260831182424 97 103 5.0 13.0 0.00 0.00 0.00 13 1013.8
20260831181926 96 140 8.0 12.0 0.00 0.00 0.00 13 1013.8
20260831181428 96 135 6.0 11.0 0.00 0.00 0.00 13 1013.8
20260831180922 97 157 5.0 10.0 0.00 0.00 0.00 13 1013.8
20260831180423 97 127 8.0 8.0 0.00 0.00 0.00 13 1013.8
20260831175925 96 246 4.0 13.0 0.00 0.00 0.00 13 1013.8
20260831175424 96 131 8.0 12.0 0.00 0.00 0.00 14 1013.8
20260831174921 96 124 9.0 13.0 0.00 0.00 0.00 14 1014.8
20260831174423 94 125 7.0 10.0 0.00 0.00 0.00 14 1014.8
20260831173917 95 138 5.0 12.0 0.00 0.00 0.00 16 1014.8
20260831173418 95 128 5.0 10.0 0.00 0.00 0.00 14 1014.8
20260831172920 95 129 6.0 10.0 0.00 0.00 0.00 16 1014.8
20260831172418 95 211 7.0 10.0 0.00 0.00 0.00 16 1014.8
20260831171920 95 149 6.0 9.0 0.00 0.00 0.00 16 1014.8
20260831171422 94 139 4.0 15.0 0.00 0.00 0.00 16 1014.8
20260831170920 94 114 8.0 8.0 0.00 0.00 0.00 16 1014.8
20260831170422 94 120 7.0 12.0 0.00 0.00 0.00 16 1014.8
20260831165924 94 157 4.0 9.0 0.00 0.00 0.00 16 1014.8
20260831165422 93 224 4.0 12.0 0.00 0.00 0.00 16 1014.8
20260831164924 93 154 4.0 10.0 0.00 0.00 0.00 17 1014.8
20260831164425 94 247 4.0 10.0 0.00 0.00 0.00 16 1014.8
20260831163924 93 128 4.0 9.0 0.00 0.00 0.00 16 1014.8
20260831163426 93 220 6.0 12.0 0.00 0.00 0.00 17 1014.8
20260831162928 93 139 8.0 10.0 0.00 0.00 0.00 17 1014.8
20260831162426 92 157 5.0 9.0 0.00 0.00 0.00 17 1014.8
20260831161928 92 136 4.0 10.0 0.00 0.00 0.00 17 1014.8
20260831161430 92 207 6.0 10.0 0.00 0.00 0.00 17 1014.8
20260831160924 91 222 5.0 8.0 0.00 0.00 0.00 17 1014.8
20260831160426 91 160 5.0 7.0 0.00 0.00 0.00 17 1014.8
20260831155928 91 113 5.0 8.0 0.00 0.00 0.00 18 1014.8
20260831155426 90 206 4.0 9.0 0.00 0.00 0.00 18 1014.8
20260831154928 90 195 5.0 10.0 0.00 0.00 0.00 19 1014.8
20260831154430 89 226 7.0 9.0 0.00 0.00 0.00 19 1014.8
20260831153929 89 223 6.0 10.0 0.00 0.00 0.00 20 1014.8
20260831153430 89 189 4.0 7.0 0.00 0.00 0.00 20 1014.8
20260831152932 88 216 4.0 7.0 0.00 0.00 0.00 21 1014.8
20260831152431 89 87 4.0 12.0 0.00 0.00 0.00 22 1014.8
20260831151933 88 109 5.0 9.0 0.00 0.00 0.00 23 1014.8
20260831151435 88 180 7.0 10.0 0.00 0.00 0.00 25 1014.8
20260831150933 87 221 6.0 13.0 0.00 0.00 0.00 28 1014.8
20260831150435 86 216 9.0 13.0 0.00 0.00 0.00 28 1014.8
20260831145937 86 216 9.0 8.0 0.00 0.00 0.00 28 1014.8
20260831145436 86 222 6.0 9.0 0.00 0.00 0.00 28 1014.8
20260831144937 87 69 4.0 13.0 0.00 0.00 0.00 28 1014.8
20260831144439 86 115 4.0 11.0 0.00 0.00 0.00 28 1014.8
20260831143933 86 228 7.0 11.0 0.00 0.00 0.00 29 1014.8
20260831143431 85 196 7.0 13.0 0.00 0.00 0.00 29 1014.8
20260831142933 84 207 8.0 14.0 0.00 0.00 0.00 31 1014.8
20260831142427 84 146 8.0 14.0 0.00 0.00 0.00 31 1014.8
20260831141929 84 199 10.0 12.0 0.00 0.00 0.00 32 1014.8
20260831141431 84 165 8.0 12.0 0.00 0.00 0.00 33 1014.8
20260831140929 83 202 7.0 14.0 0.00 0.00 0.00 34 1014.8
20260831140431 83 211 9.0 15.0 0.00 0.00 0.00 35 1014.8
20260831135933 83 197 11.0 10.0 0.00 0.00 0.00 35 1014.8
20260831135431 83 213 7.0 12.0 0.00 0.00 0.00 35 1014.8
20260831134933 83 234 7.0 12.0 0.00 0.00 0.00 36 1014.8
20260831134435 82 221 8.0 11.0 0.00 0.00 0.00 38 1013.8
20260831133934 82 194 5.0 12.0 0.00 0.00 0.00 39 1013.8
20260831133436 82 216 8.0 11.0 0.00 0.00 0.00 39 1013.8
20260831132933 81 195 6.0 8.0 0.00 0.00 0.00 40 1013.8
20260831132432 81 203 4.0 6.0 0.00 0.00 0.00 41 1013.8
20260831131933 81 195 4.0 7.0 0.00 0.00 0.00 43 1013.8
20260831131434 81 199 4.0 8.0 0.00 0.00 0.00 43 1013.8
20260831130933 80 207 5.0 8.0 0.00 0.00 0.00 43 1013.8
20260831130435 80 211 5.0 6.0 0.00 0.00 0.00 44 1013.8
20260831125932 80 210 4.0 7.0 0.00 0.00 0.00 44 1013.8
20260831125431 80 139 4.0 7.0 0.00 0.00 0.00 44 1013.8
20260831124933 80 175 4.0 6.0 0.00 0.00 0.00 44 1013.8
20260831124429 80 166 4.0 7.0 0.00 0.00 0.00 43 1012.8
20260831124006 80 170 3.0 9.0 0.00 0.00 0.00 42 1012.8
20260831123928 80 170 3.0 9.0 0.00 0.00 0.00 42 1012.8
20260831123430 80 193 0.0 7.0 0.00 0.00 0.00 42 1012.8
20260831122932 80 156 5.0 8.0 0.00 0.00 0.00 43 1012.8
20260831122430 80 216 6.0 9.0 0.00 0.00 0.00 43 1012.8
20260831121932 80 211 5.0 9.0 0.00 0.00 0.00 43 1012.8
20260831121434 80 160 5.0 8.0 0.00 0.00 0.00 43 1012.8
20260831120933 80 212 5.0 7.0 0.00 0.00 0.00 42 1012.8
20260831120435 80 213 3.0 10.0 0.00 0.00 0.00 42 1012.8
20260831115936 80 157 4.0 9.0 0.00 0.00 0.00 42 1012.8
20260831115435 80 220 6.0 7.0 0.00 0.00 0.00 42 1012.8
20260831114937 80 181 4.0 7.0 0.00 0.00 0.00 42 1012.8
20260831114439 80 166 4.0 7.0 0.00 0.00 0.00 42 1012.8
20260831113937 81 180 3.0 7.0 0.00 0.00 0.00 41 1012.8
20260831113439 81 186 4.0 8.0 0.00 0.00 0.00 41 1012.8
20260831112941 81 223 4.0 8.0 0.00 0.00 0.00 40 1012.8
20260831112512 81 127 4.0 9.0 0.00 0.00 0.00 40 1012.8
20260831112440 81 127 4.0 9.0 0.00 0.00 0.00 40 1012.8
20260831111942 81 212 4.0 7.0 0.00 0.00 0.00 40 1012.8
20260831111443 81 211 5.0 9.0 0.00 0.00 0.00 40 1012.8
20260831110942 81 175 5.0 7.0 0.00 0.00 0.00 40 1012.8
20260831110444 81 185 3.0 10.0 0.00 0.00 0.00 40 1012.8
20260831105941 81 201 4.0 6.0 0.00 0.00 0.00 40 1012.8
20260831105440 81 191 3.0 8.0 0.00 0.00 0.00 39 1012.8
20260831104942 81 192 5.0 8.0 0.00 0.00 0.00 39 1012.8
20260831104444 81 203 4.0 6.0 0.00 0.00 0.00 39 1012.8
20260831103942 81 218 4.0 6.0 0.00 0.00 0.00 38 1012.8
20260831103444 81 163 0.0 7.0 0.00 0.00 0.00 37 1012.8
20260831102946 81 224 5.0 7.0 0.00 0.00 0.00 37 1012.8
20260831102445 82 163 3.0 9.0 0.00 0.00 0.00 36 1012.8
20260831101946 82 170 3.0 7.0 0.00 0.00 0.00 36 1012.8
20260831101448 82 213 4.0 7.0 0.00 0.00 0.00 35 1012.8
20260831100938 82 224 4.0 10.0 0.00 0.00 0.00 35 1012.8
20260831100439 82 202 5.0 9.0 0.00 0.00 0.00 35 1012.8
20260831095941 82 205 6.0 6.0 0.00 0.00 0.00 35 1012.8
20260831095440 82 205 4.0 6.0 0.00 0.00 0.00 34 1012.8
20260831094942 82 195 4.0 8.0 0.00 0.00 0.00 34 1012.8
20260831094443 82 138 4.0 7.0 0.00 0.00 0.00 33 1012.8
20260831093942 82 137 4.0 9.0 0.00 0.00 0.00 33 1012.8
20260831093444 83 228 5.0 7.0 0.00 0.00 0.00 33 1012.8
20260831092946 82 215 5.0 7.0 0.00 0.00 0.00 32 1011.8
20260831092440 83 221 5.0 9.0 0.00 0.00 0.00 32 1011.8
20260831091937 83 196 6.0 9.0 0.00 0.00 0.00 32 1011.8
20260831091439 83 198 5.0 11.0 0.00 0.00 0.00 31 1011.8
20260831090938 83 209 7.0 11.0 0.00 0.00 0.00 31 1011.8
20260831090440 83 200 9.0 10.0 0.00 0.00 0.00 31 1011.8
20260831085942 83 241 7.0 10.0 0.00 0.00 0.00 31 1011.8
20260831085440 83 214 6.0 10.0 0.00 0.00 0.00 30 1011.8
20260831084942 83 217 7.0 11.0 0.00 0.00 0.00 30 1011.8
20260831084444 83 206 6.0 12.0 0.00 0.00 0.00 30 1011.8
20260831083943 83 197 8.0 14.0 0.00 0.00 0.00 29 1011.8
20260831083444 83 216 11.0 13.0 0.00 0.00 0.00 29 1011.8
20260831082946 84 205 9.0 10.0 0.00 0.00 0.00 29 1011.8
20260831082445 84 178 7.0 14.0 0.00 0.00 0.00 29 1011.8
20260831081942 84 199 10.0 15.0 0.00 0.00 0.00 29 1011.8
20260831081444 84 237 9.0 14.0 0.00 0.00 0.00 29 1011.8
20260831080943 84 221 10.0 12.0 0.00 0.00 0.00 28 1011.8
20260831080445 84 186 6.0 12.0 0.00 0.00 0.00 28 1011.8
20260831075941 85 201 7.0 12.0 0.00 0.00 0.00 27 1011.8
20260831075440 85 201 7.0 14.0 0.00 0.00 0.00 27 1011.8
20260831074942 85 228 11.0 13.0 0.00 0.00 0.00 26 1011.8
20260831074444 85 227 10.0 12.0 0.00 0.00 0.00 26 1011.8
20260831073942 85 226 10.0 10.0 0.00 0.00 0.00 25 1011.8
20260831073444 85 205 8.0 12.0 0.00 0.00 0.00 24 1011.8
20260831072946 86 215 8.0 14.0 0.00 0.00 0.00 24 1011.8
20260831072445 86 200 11.0 15.0 0.00 0.00 0.00 24 1011.8
20260831071947 86 198 8.0 13.0 0.00 0.00 0.00 23 1011.8
20260831071448 86 202 9.0 13.0 0.00 0.00 0.00 23 1011.8
20260831070942 87 193 7.0 12.0 0.00 0.00 0.00 22 1011.8
20260831070440 87 203 6.0 14.0 0.00 0.00 0.00 22 1011.8
20260831065942 87 160 10.0 13.0 0.00 0.00 0.00 21 1011.8
20260831065440 87 214 8.0 12.0 0.00 0.00 0.00 20 1011.8
20260831064942 87 224 7.0 11.0 0.00 0.00 0.00 20 1011.8
20260831064444 87 124 8.0 11.0 0.00 0.00 0.00 19 1011.8
20260831063943 87 133 7.0 12.0 0.00 0.00 0.00 19 1011.8
20260831063445 87 140 6.0 11.0 0.00 0.00 0.00 18 1011.8
20260831062946 87 205 7.0 12.0 0.00 0.00 0.00 18 1011.8
20260831062445 88 211 6.0 12.0 0.00 0.00 0.00 18 1011.8
20260831061947 88 171 6.0 10.0 0.00 0.00 0.00 18 1011.8
20260831061449 88 215 6.0 9.0 0.00 0.00 0.00 18 1011.8
20260831060947 88 148 6.0 9.0 0.00 0.00 0.00 18 1011.8
20260831060449 88 212 5.0 9.0 0.00 0.00 0.00 18 1011.8
20260831055951 88 206 4.0 11.0 0.00 0.00 0.00 18 1011.8
20260831055450 88 231 7.0 9.0 0.00 0.00 0.00 18 1011.8
20260831054951 88 222 5.0 9.0 0.00 0.00 0.00 18 1011.8
20260831054453 88 111 4.0 8.0 0.00 0.00 0.00 18 1011.8
20260831053947 88 144 5.0 9.0 0.00 0.00 0.00 18 1011.8
20260831053449 88 138 4.0 9.0 0.00 0.00 0.00 18 1011.8
20260831052951 88 177 6.0 9.0 0.00 0.00 0.00 17 1011.8
20260831052445 89 150 6.0 11.0 0.00 0.00 0.00 15 1011.8
20260831051947 89 196 7.0 9.0 0.00 0.00 0.00 15 1011.8
20260831051449 89 174 6.0 9.0 0.00 0.00 0.00 15 1011.8
20260831050947 89 142 4.0 10.0 0.00 0.00 0.00 15 1011.8
20260831050449 89 145 3.0 8.0 0.00 0.00 0.00 15 1011.8
20260831045951 89 221 6.0 11.0 0.00 0.00 0.00 15 1011.8
20260831045449 89 168 4.0 10.0 0.00 0.00 0.00 15 1011.8
20260831044951 89 216 4.0 8.0 0.00 0.00 0.00 15 1011.8
20260831044453 89 193 4.0 8.0 0.00 0.00 0.00 15 1011.8
20260831043952 89 165 4.0 10.0 0.00 0.00 0.00 15 1011.8
20260831043454 89 195 4.0 7.0 0.00 0.00 0.00 15 1011.8
20260831042956 89 226 4.0 8.0 0.00 0.00 0.00 15 1011.8
20260831042454 89 160 6.0 7.0 0.00 0.00 0.00 15 1011.8
20260831041956 89 186 4.0 7.0 0.00 0.00 0.00 15 1011.8
20260831041458 89 161 4.0 6.0 0.00 0.00 0.00 15 1011.8
20260831040956 89 163 4.0 8.0 0.00 0.00 0.00 15 1011.8
20260831040458 89 196 4.0 8.0 0.00 0.00 0.00 15 1011.8
20260831040000 89 156 5.0 9.0 0.00 0.00 0.00 15 1011.8
20260831035459 89 181 4.0 7.0 0.00 0.00 0.00 15 1011.8
20260831035001 90 140 4.0 6.0 0.00 0.00 0.00 12 1011.8
20260831034503 90 157 4.0 6.0 0.00 0.00 0.00 12 1011.8
20260831034001 90 144 4.0 5.0 0.00 0.00 0.00 12 1011.8
20260831033503 90 204 0.0 5.0 0.00 0.00 0.00 12 1011.8
20260831033005 90 139 5.0 7.0 0.00 0.00 0.00 12 1011.8
20260831032504 90 141 3.0 8.0 0.00 0.00 0.00 12 1011.8
20260831032005 90 145 4.0 7.0 0.00 0.00 0.00 12 1011.8
20260831031507 91 156 4.0 6.0 0.00 0.00 0.00 12 1011.8
20260831031006 91 175 4.0 7.0 0.00 0.00 0.00 12 1011.8
20260831030508 91 144 4.0 7.0 0.00 0.00 0.00 12 1011.8
20260831030010 91 176 4.0 7.0 0.00 0.00 0.00 12 1010.8
20260831025508 92 152 5.0 7.0 0.00 0.00 0.00 12 1010.8
20260831025010 92 167 4.0 5.0 0.00 0.00 0.00 12 1010.8
20260831024512 92 144 3.0 5.0 0.00 0.00 0.00 12 1010.8
20260831024011 92 132 3.0 6.0 0.00 0.00 0.00 12 1010.8
20260831023512 92 144 4.0 5.0 0.00 0.00 0.00 12 1010.8
20260831023014 92 150 4.0 6.0 0.00 0.00 0.00 11 1010.8
20260831022513 92 137 4.0 7.0 0.00 0.00 0.00 11 1010.8
20260831022015 93 148 3.0 6.0 0.00 0.00 0.00 11 1010.8
20260831021517 93 132 4.0 7.0 0.00 0.00 0.00 11 1010.8
20260831021015 93 151 4.0 7.0 0.00 0.00 0.00 11 1010.8
20260831020517 93 165 3.0 5.0 0.00 0.00 0.00 11 1010.8
20260831020017 93 138 3.0 6.0 0.00 0.00 0.00 11 1010.8
20260831015516 93 151 4.0 6.0 0.00 0.00 0.00 11 1010.8
20260831015018 94 163 3.0 5.0 0.00 0.00 0.00 11 1010.8
20260831014520 94 158 4.0 5.0 0.00 0.00 0.00 11 1009.8
20260831014018 94 142 4.0 7.0 0.00 0.00 0.00 11 1009.8
20260831013520 94 188 4.0 5.0 0.00 0.00 0.00 11 1009.8
20260831013022 95 157 4.0 5.0 0.00 0.00 0.00 11 1009.8
20260831012520 95 185 3.0 5.0 0.00 0.00 0.00 11 1009.8
20260831012003 95 200 0.0 5.0 0.00 0.00 0.00 11 1009.8
20260831011505 95 153 0.0 7.0 0.00 0.00 0.00 11 1009.8
20260831011004 95 182 3.0 6.0 0.00 0.00 0.00 11 1009.8
20260831010506 95 150 4.0 6.0 0.00 0.00 0.00 11 1009.8
20260831010003 96 217 5.0 8.0 0.00 0.00 0.00 11 1009.8
20260831005502 96 157 5.0 8.0 0.00 0.00 0.00 11 1009.8
20260831005004 96 144 5.0 8.0 0.00 0.00 0.00 11 1009.8
20260831004501 96 145 4.0 9.0 0.00 0.00 0.00 11 1009.8
20260831004000 97 211 4.0 8.0 0.00 0.00 0.00 11 1009.8
20260831003501 97 216 4.0 8.0 0.00 0.00 0.00 11 1009.8
20260831003003 97 151 7.0 9.0 0.00 0.00 0.00 11 1009.8
20260831002502 97 181 6.0 9.0 0.00 0.00 0.00 11 1009.8
20260831002004 97 150 7.0 10.0 0.00 0.00 0.00 11 1009.8
20260831001506 97 212 6.0 8.0 0.00 0.00 0.00 11 1009.8
20260831001004 97 143 8.0 10.0 0.00 0.00 0.00 11 1009.8
20260831000506 97 187 5.0 10.0 0.00 0.00 0.00 11 1009.8
20260831000008 98 186 5.0 11.0 0.00 0.00 0.00 10 1009.8
20260830235507 97 168 7.0 12.0 0.00 0.00 0.00 11 1009.8
20260830235008 98 118 7.0 12.0 0.00 0.00 0.00 10 1009.8
20260830234510 98 182 6.0 10.0 0.00 0.00 0.00 10 1009.8
20260830234009 98 140 8.0 10.0 0.00 0.00 0.00 10 1009.8
20260830233511 98 205 4.0 11.0 0.00 0.00 0.00 10 1009.8
20260830233013 98 179 6.0 11.0 0.00 0.00 0.00 10 1009.8
20260830232511 98 229 7.0 12.0 0.00 0.00 0.00 10 1009.8
20260830232013 98 141 6.0 11.0 0.00 0.00 0.00 10 1009.8
20260830231515 99 222 6.0 10.0 0.00 0.00 0.00 10 1009.8
20260830231014 99 156 0.0 11.0 0.00 0.00 0.00 10 1009.8
20260830230515 99 136 7.0 11.0 0.00 0.00 0.00 10 1009.8
20260830230017 98 117 10.0 14.0 0.00 0.00 0.00 10 1009.8
20260830225516 98 115 11.0 15.0 0.00 0.00 0.00 10 1009.8
20260830225018 99 140 10.0 13.0 0.00 0.00 0.00 10 1009.8
20260830224520 99 116 7.0 11.0 0.00 0.00 0.00 10 1009.8
20260830224018 98 122 9.0 16.0 0.00 0.00 0.00 10 1009.8
20260830223520 98 138 7.0 11.0 0.00 0.00 0.00 10 1009.8
20260830223022 99 210 7.0 12.0 0.00 0.00 0.00 10 1009.8
20260830222520 99 147 7.0 11.0 0.00 0.00 0.00 10 1009.8
20260830222022 99 172 6.0 11.0 0.00 0.00 0.00 10 1009.8
20260830221524 99 153 7.0 16.0 0.00 0.00 0.00 10 1009.8
20260830221023 99 136 9.0 16.0 0.00 0.00 0.00 10 1009.8
20260830220525 99 112 8.0 15.0 0.00 0.00 0.00 10 1009.8
20260830220022 99 163 8.0 14.0 0.00 0.00 0.00 10 1009.8
20260830215520 100 218 5.0 11.0 0.00 0.00 0.00 10 1009.8
20260830215022 99 146 8.0 13.0 0.00 0.00 0.00 10 1009.8
20260830214524 99 176 7.0 12.0 0.00 0.00 0.00 10 1010.8
20260830214022 99 124 9.0 13.0 0.00 0.00 0.00 10 1010.8
20260830213520 100 216 4.0 9.0 0.00 0.00 0.00 10 1010.8
20260830213022 99 192 8.0 12.0 0.00 0.00 0.00 10 1010.8
20260830212520 99 115 6.0 10.0 0.00 0.00 0.00 10 1010.8
20260830212022 98 119 7.0 14.0 0.00 0.00 0.00 10 1010.8
20260830211524 99 131 8.0 14.0 0.00 0.00 0.00 10 1010.8
20260830211018 99 125 10.0 16.0 0.00 0.00 0.00 10 1010.8
20260830210520 99 144 11.0 15.0 0.00 0.00 0.00 10 1010.8
20260830210022 99 117 5.0 12.0 0.00 0.00 0.00 10 1010.8
20260830205520 100 123 10.0 12.0 0.00 0.00 0.00 10 1010.8
20260830205022 100 111 7.0 10.0 0.00 0.00 0.00 10 1010.8
20260830204524 100 179 0.0 12.0 0.00 0.00 0.00 10 1010.8
20260830204023 99 202 7.0 10.0 0.00 0.00 0.00 10 1010.8
20260830203525 98 112 7.0 10.0 0.00 0.00 0.00 10 1010.8
20260830203026 98 148 10.0 15.0 0.00 0.00 0.00 10 1010.8
20260830202525 98 127 6.0 13.0 0.00 0.00 0.00 10 1010.8
20260830202022 98 127 12.0 15.0 0.00 0.00 0.00 10 1010.8
20260830201524 99 125 10.0 14.0 0.00 0.00 0.00 10 1011.8
20260830201023 97 106 11.0 14.0 0.00 0.00 0.00 10 1011.8